Zurück zum Katalog

DELTA 1 DEB

AktivSSO
NORAD 7933·DEBRIS·🇺🇸 United States

Gestartet Jul 23, 1972 von Vandenberg Space Force Base

Loading…

Nächste Überflüge (nächste 24 Stunden)

TLE

AktuellSource: Space-Track

Epoche: Sep 14, 2026, 13:41 UTC

1 07933U 72058CB  26257.57067638  .00000617  00000-0  18818-3 0  9991
2 07933  98.9673 291.6058 0281507 260.1225  96.8071 14.25680287608826

Verfolge DELTA 1 DEB in Echtzeit mit AllMySat

Download on the App Store